Theta_e
294 296 295 291 291 291 292 293 294 293 292 293 294 295 297 296 296 295 295 295 295 294 293 292 292 291 290 290 288 288 287 287 287 288 289 290 292 294 297 298 300 305 311 319
295 292 290 290 291 291 293 294 294 293 292 293 295 295 296 296 295 295 294 294 294 293 293 292 291 291 290 290 289 288 287 287 287 287 287 289 291 292 294 297 300 300 303 311
295 289 289 290 291 293 292 291 291 292 292 294 295 297 296 297 296 295 295 294 293 293 292 292 291 290 290 289 289 288 287 286 286 286 286 287 288 291 292 292 293 295 298 301
290 288 289 291 290 291 294 290 290 291 294 299 295 300 297 298 297 296 294 293 292 292 291 291 290 290 289 289 288 288 287 286 286 285 285 285 286 287 288 289 291 293 295 299
290 289 289 291 289 289 292 290 291 293 295 295 297 297 299 297 296 296 294 293 292 291 291 291 290 289 289 288 288 287 287 286 285 285 285 285 284 285 285 287 288 290 292 294
289 288 289 288 288 288 289 291 292 294 295 302 296 294 300 298 298 295 293 292 291 291 291 290 289 289 288 288 287 286 286 286 286 285 285 285 285 284 284 285 286 287 288 291
289 289 288 288 290 289 292 294 304 304 304 305 294 293 299 298 295 294 292 292 291 291 290 290 289 288 288 287 287 286 286 285 285 285 285 285 285 284 284 284 284 285 287 288
297 299 288 287 288 290 289 292 300 302 300 298 292 293 299 296 295 293 292 291 291 291 290 290 289 288 288 287 286 286 285 285 285 284 284 284 284 284 284 283 284 284 285 286
296 292 287 287 288 289 290 294 289 294 289 291 296 297 296 295 294 293 292 291 290 290 290 289 289 288 287 286 285 285 284 283 284 284 284 284 284 283 283 283 283 283 283 284
289 297 287 287 287 287 289 289 293 293 299 300 298 296 297 295 295 294 292 291 290 290 290 290 289 288 287 286 284 283 283 282 282 282 282 283 283 283 283 283 283 283 283 283
288 291 290 287 288 290 287 289 289 290 291 297 297 298 300 297 296 294 292 290 290 290 290 289 289 288 287 286 284 283 282 282 281 280 280 281 282 282 282 282 282 282 283 283
288 291 294 292 287 285 288 290 291 293 294 290 291 293 294 292 292 292 291 290 289 289 289 289 288 288 287 286 285 283 282 281 280 279 279 279 279 280 280 281 281 281 281 282
288 292 298 292 287 285 286 287 288 288 287 290 293 296 291 289 291 290 290 290 290 289 288 288 289 288 287 286 285 283 281 280 279 279 278 279 278 278 278 279 279 280 281 281
288 289 292 299 293 289 287 287 287 288 290 291 291 293 294 293 292 292 291 290 290 289 288 288 289 287 287 287 285 283 281 280 279 278 278 278 277 277 277 277 277 277 279 280
288 289 287 287 288 288 288 288 288 288 288 291 293 293 294 294 292 291 290 289 288 288 288 288 288 288 287 287 286 284 281 279 279 278 278 277 277 276 276 276 276 276 276 277
287 289 282 284 287 287 287 288 288 288 289 288 289 289 290 291 291 289 289 289 288 288 288 288 288 287 287 286 286 283 281 279 278 277 277 276 276 275 275 275 276 276 276 275
286 288 286 291 284 285 288 286 287 288 287 288 289 291 291 291 290 289 289 288 287 287 288 288 288 287 287 286 286 283 281 278 278 277 276 276 275 274 274 274 275 275 274 274
286 286 287 289 284 292 293 287 287 288 289 289 288 289 290 290 289 288 288 287 287 287 287 288 287 287 286 286 285 282 280 278 278 277 276 275 273 273 272 272 273 273 273 273
285 286 289 289 291 292 291 287 286 286 289 289 289 290 290 290 288 287 288 288 287 287 287 287 287 285 285 285 284 282 279 278 277 276 274 273 271 271 271 271 271 271 271 271
286 286 287 281 288 293 290 285 284 285 289 292 290 290 289 288 287 288 289 287 286 285 286 286 286 285 284 284 283 281 279 277 276 274 273 271 270 270 270 270 270 270 269 270
285 287 287 288 288 288 288 284 284 289 292 287 288 288 288 288 288 289 288 287 285 285 285 284 284 284 284 283 282 280 278 276 274 273 271 270 269 269 269 269 269 268 269 268
286 287 287 286 288 288 288 284 286 291 288 287 287 287 287 287 287 287 286 286 285 285 284 284 283 282 282 282 280 278 276 275 273 271 270 269 268 267 268 267 267 268 268 268
286 289 289 289 289 288 287 288 285 288 287 286 286 287 287 286 286 286 286 286 285 284 283 282 282 281 281 280 278 276 275 273 271 270 269 268 267 266 266 266 267 267 268 268
284 287 286 286 289 287 287 286 286 286 286 286 286 286 286 286 286 285 285 285 284 284 282 281 280 279 278 275 273 273 271 270 270 268 267 266 266 266 266 266 266 267 267 267
289 286 286 286 287 288 288 289 289 288 288 287 287 286 286 286 285 285 285 284 284 283 281 279 277 277 275 272 271 270 270 269 267 266 265 265 266 266 266 266 266 266 266 266
287 287 287 289 290 290 290 290 289 288 287 287 287 286 286 285 285 285 284 284 282 281 278 275 275 274 272 271 270 268 268 266 265 264 265 266 265 265 265 265 265 266 266 267
Wind_Speed
7 10 9 10 9 7 4 1 3 2 3 7 1 4 6 1 5 9 12 13 14 15 17 21 21 23 25 28 30 31 33 32 32 29 29 29 29 30 29 29 34 34 33 28
6 8 5 4 5 2 2 2 4 3 2 5 3 8 9 8 1 4 9 12 14 16 18 23 25 25 26 27 29 31 32 32 30 28 29 26 27 29 30 29 28 33 34 31
6 5 1 2 8 1 5 7 5 3 8 5 9 8 13 12 9 3 6 8 11 15 17 18 25 26 26 27 29 30 31 31 29 29 27 28 28 25 25 30 33 36 40 41
8 3 1 2 5 6 2 7 6 5 5 2 4 1 11 11 8 4 5 9 12 13 13 17 20 23 25 26 26 27 28 30 29 29 28 28 26 27 29 30 32 37 37 39
4 3 4 2 2 5 4 8 3 3 4 4 5 4 8 7 8 5 4 7 9 10 11 13 18 20 21 23 24 25 26 27 29 28 27 28 27 27 30 31 32 32 35 38
5 1 2 4 6 3 8 2 3 2 2 3 6 3 8 8 5 5 2 6 8 10 11 14 17 17 19 21 23 24 26 27 29 29 28 27 29 32 31 32 32 32 35 38
3 2 1 4 3 3 5 2 1 2 2 2 5 5 7 6 7 5 4 6 7 8 9 10 14 17 18 19 22 24 25 26 27 28 28 27 28 29 30 31 31 34 33 36
4 4 2 3 4 3 4 3 3 4 3 4 5 6 3 5 8 7 6 6 7 7 7 8 11 13 15 17 18 20 23 25 25 26 26 26 26 28 29 30 32 30 31 35
3 2 3 3 2 3 2 1 2 1 2 2 4 5 7 9 10 10 9 7 6 7 7 8 10 11 13 14 16 17 20 22 24 25 25 25 26 28 30 32 32 32 33 36
2 2 2 4 1 3 3 4 2 3 3 5 5 5 10 11 13 12 12 9 7 8 9 9 10 11 11 12 14 15 16 19 21 23 24 25 25 25 28 30 33 36 37 39
2 1 4 0 7 5 4 3 2 2 2 3 5 4 3 3 7 9 9 6 6 10 11 11 13 11 11 12 13 14 15 17 19 22 23 24 26 26 27 30 33 35 38 40
3 0 3 2 4 2 3 4 6 3 4 4 3 9 1 1 3 3 8 7 10 12 12 12 14 13 13 13 13 13 14 15 17 19 21 23 24 26 27 29 35 35 38 39
6 2 2 3 2 2 5 9 9 2 2 10 4 6 4 5 4 6 9 12 14 13 13 12 13 13 13 13 12 12 12 13 15 18 19 21 23 25 26 28 30 36 37 39
4 2 6 6 3 2 4 9 15 10 5 7 15 21 16 16 12 11 13 15 15 13 12 12 11 14 13 12 13 12 12 12 13 16 18 19 21 22 24 26 26 29 35 35
2 4 3 11 12 12 10 8 15 21 21 10 17 18 19 15 17 20 18 16 13 13 13 12 12 13 15 13 13 12 12 11 11 14 16 18 20 21 22 23 25 26 27 33
4 1 1 5 10 10 15 16 21 24 23 24 30 31 29 23 17 10 11 12 11 12 13 12 11 14 14 15 14 12 11 10 9 11 14 17 19 20 22 23 24 24 25 27
7 4 1 4 1 10 11 21 20 15 11 18 20 23 18 16 15 12 12 11 11 13 13 12 12 14 13 15 14 13 11 10 9 10 12 14 17 20 21 23 23 24 24 24
7 5 3 4 2 6 1 3 3 20 13 21 16 18 16 16 14 14 13 12 11 12 13 13 15 14 15 15 15 13 12 11 10 10 11 13 15 18 20 23 24 26 25 25
8 7 4 4 5 13 12 4 6 7 7 19 20 19 18 13 6 12 14 8 9 12 16 21 17 14 16 15 14 14 13 11 9 9 10 11 14 18 20 22 23 26 29 29
10 10 7 3 5 7 5 5 5 4 8 4 10 11 11 4 8 10 2 5 10 18 19 17 18 19 18 17 13 14 15 11 10 8 11 14 16 17 21 22 23 23 26 27
7 9 17 12 8 10 8 9 6 4 3 4 4 5 7 10 11 12 8 11 16 15 16 18 19 20 21 16 13 15 13 12 9 11 11 14 16 19 19 21 23 23 23 25
11 11 7 9 8 13 14 12 7 1 2 3 4 8 12 13 13 14 15 13 13 15 16 17 17 18 18 14 13 13 11 8 10 10 13 15 19 18 17 19 21 21 21 21
6 8 6 12 8 2 18 7 14 7 7 8 12 13 14 15 15 16 15 14 12 16 17 15 14 15 15 12 14 10 8 10 9 11 16 19 19 19 16 17 19 18 17 17
9 8 4 0 10 16 15 14 15 14 15 15 15 15 15 17 17 18 15 13 11 16 13 12 9 12 9 8 8 9 8 8 10 14 17 18 16 15 14 13 14 15 15 16
6 11 7 13 20 17 18 17 17 16 16 15 13 13 16 17 19 17 15 14 15 14 9 8 9 7 5 7 8 7 8 9 12 14 15 13 12 13 14 13 13 14 15 14
9 10 8 13 19 12 15 9 3 11 13 15 17 17 18 16 17 16 14 18 12 9 8 7 6 6 6 6 6 7 9 11 12 11 10 10 11 12 13 14 15 14 15 16
Wind_Direction
20 75 61 38 35 46 57 331 336 73 82 329 140 254 220 307 5 8 3 360 359 359 355 360 3 3 1 0 357 355 351 349 347 344 340 334 328 324 320 316 310 303 298 305
94 72 44 34 31 78 30 301 33 196 177 302 222 269 211 212 244 354 352 352 351 349 351 353 356 359 1 359 358 355 354 350 349 345 336 330 324 318 314 316 317 312 306 299
73 85 21 8 44 84 52 23 347 306 310 236 285 232 195 208 220 252 350 353 354 352 350 351 352 354 355 358 357 356 354 352 350 346 341 336 332 329 326 324 321 318 315 308
74 89 106 119 74 340 181 3 308 279 298 316 344 338 195 198 213 216 340 359 354 352 352 351 352 351 354 352 353 353 355 354 353 350 347 343 337 330 326 320 318 317 315 311
91 74 32 57 20 340 36 328 279 262 281 305 171 257 115 168 229 216 318 343 354 355 351 350 354 353 350 351 351 351 353 356 357 354 352 347 340 331 325 324 323 322 321 317
88 80 346 351 302 254 300 311 195 236 296 257 117 349 186 186 196 194 263 329 344 351 351 353 352 353 351 350 351 351 353 356 358 357 355 353 346 339 335 332 330 327 324 321
160 141 96 348 305 198 323 291 207 218 229 294 135 286 282 168 179 202 256 309 329 338 345 345 348 347 351 352 351 352 354 354 356 357 356 354 350 345 339 336 330 328 327 324
203 209 180 19 36 344 10 353 347 281 271 340 154 236 242 169 179 200 235 273 291 317 331 335 340 341 344 347 350 349 350 350 353 355 355 354 355 349 343 340 336 329 327 323
167 169 125 55 43 322 47 178 49 300 101 287 233 235 229 188 204 218 236 251 284 296 308 319 325 330 334 339 343 345 346 346 349 350 352 354 355 353 346 345 342 336 335 334
114 207 220 116 207 106 304 125 200 166 272 272 221 268 258 202 216 217 221 234 267 291 297 307 313 317 320 324 329 335 339 342 344 346 348 349 351 352 350 347 348 343 340 347
143 267 120 300 199 182 158 195 202 318 253 275 297 258 41 238 210 214 228 237 277 304 302 305 305 305 306 310 320 326 332 336 340 342 342 344 345 348 351 351 350 349 344 352
157 277 225 206 115 320 319 237 203 238 180 246 300 272 55 235 245 235 264 257 281 306 296 296 287 291 294 302 310 317 324 329 334 335 336 338 340 343 346 349 351 353 351 351
174 193 243 198 197 209 229 213 216 224 287 229 230 257 136 152 214 256 268 273 279 307 294 291 283 283 284 290 298 304 313 321 328 331 333 336 339 341 342 341 345 351 359 352
168 240 254 269 42 76 206 208 207 196 215 246 227 270 269 281 280 282 293 303 303 298 293 283 278 279 279 277 284 293 301 313 322 327 329 331 335 337 337 338 342 344 353 356
201 248 223 274 273 256 244 229 209 214 221 243 270 275 280 289 306 301 297 293 295 295 294 284 284 280 279 271 272 277 284 297 310 319 323 325 329 332 334 338 340 344 344 352
158 243 67 266 267 269 262 250 237 236 241 253 261 274 269 278 282 297 295 291 294 297 297 291 281 274 269 270 266 261 267 279 297 310 317 322 327 331 333 335 337 339 342 344
170 208 186 270 99 310 274 236 223 215 219 228 246 252 284 284 287 295 290 297 293 300 303 296 283 279 276 268 260 256 256 267 281 298 309 317 323 327 330 331 333 335 338 338
169 176 205 282 281 247 2 171 166 210 229 223 248 262 271 277 295 290 283 276 281 296 301 297 278 267 284 281 255 251 249 256 267 286 302 314 321 323 326 328 329 330 332 333
178 189 243 253 235 304 279 169 180 184 257 237 243 256 267 284 310 276 260 257 295 303 299 290 279 284 284 275 261 247 249 253 260 279 296 309 318 321 323 324 325 326 328 328
230 219 211 147 248 255 69 140 139 167 274 187 206 236 263 264 269 285 61 280 303 306 302 288 278 289 285 272 259 242 245 241 249 272 291 306 315 317 316 317 318 317 322 318
179 207 221 229 250 276 259 152 165 192 301 148 173 238 250 253 260 298 299 282 289 285 280 284 284 284 285 282 253 240 242 236 249 269 291 302 308 312 312 311 313 316 317 318
177 178 193 208 230 261 180 147 213 54 161 166 261 273 281 278 282 281 286 276 278 276 277 284 285 282 288 272 234 231 235 241 260 279 293 300 307 309 307 307 310 314 316 318
219 209 189 202 213 69 180 215 215 277 271 279 294 289 288 288 284 283 281 278 268 262 270 273 273 280 283 259 230 219 227 246 266 286 297 305 307 307 307 307 309 312 315 315
224 220 251 321 226 239 230 247 259 261 267 276 276 275 282 284 286 286 281 275 267 258 255 267 274 273 256 245 219 214 230 254 280 292 299 303 305 304 305 304 304 305 309 313
226 152 213 253 271 273 272 258 266 265 265 273 273 275 282 282 278 279 280 279 274 271 270 258 262 250 211 201 209 225 251 272 285 292 297 296 299 301 303 301 299 298 296 297
202 215 219 250 259 261 279 296 305 289 284 283 287 287 279 274 277 276 271 273 264 254 238 227 226 207 189 199 220 242 260 273 283 285 290 293 297 298 300 303 305 298 295 299